Powrót do katalogu

CZ-6A DEB

AktywnyPO
NORAD 60678·DEBRIS·🇨🇳 China

Wystrzelony Aug 6, 2024 z Taiyuan Satellite Launch Center

Loading…

Następne Przeloty (najbliższe 24 godziny)

TLE

ŚwieżeSource: Space-Track

Epoka: Sep 14, 2026, 10:37 UTC

1 60678U 24140CF  26257.44302429  .00000256  00000-0  69439-4 0  9996
2 60678  88.9040 252.5159 0073171  11.5389 348.7469 14.43034729110496

Śledź CZ-6A DEB w czasie rzeczywistym z AllMySat

Download on the App Store